{"data":{"norad_id":65847,"epoch":"2026-05-25T02:04:29.699904Z","epoch_age_seconds":74467,"freshness":"FRESH","line1":"1 65847U 25221AA  26145.08645486  .00011396  00000+0  39631-3 0  9995","line2":"2 65847  53.1582  93.9438 0001214  97.9399 262.1739 15.30197137 37777","mean_motion":15.30197137,"eccentricity":0.0001214,"inclination_deg":53.1582,"raan_deg":93.9438,"arg_perigee_deg":97.9399,"mean_anomaly_deg":262.1739,"bstar":0.00039631,"rev_number":3777,"period_min":94.105521777617,"perigee_km":474.39161985559,"apogee_km":476.0556158136,"semimajor_km":6853.3606178346,"source":"CELESTRAK","updated_at":"2026-05-25T13:38:20.947133Z"}}